Regional Weather Roundup
Issued by NWS Sterling, VA

Home | Current Version | Previous Version | Graphics & Text | Print | Product List | Glossary On
Versions: 1 2 3 4 5 6 7 8 9 10 11 12 13 14 15 16 17 18 19 20 21 22 23 24 25 26 27 28 29 30 31 32 33 34 35 36 37 38 39 40 41 42 43 44 45 46 47 48 49 50
000
ASUS41 KLWX 270411
RWRLWX

REGIONAL WEATHER ROUNDUP
NATIONAL WEATHER SERVICE BALTIMORE MD/WASHINGTON DC
1200 AM EDT MON JUL 27 2015

Note: "FAIR" indicates few or no clouds below 12,000 feet
with no significant weather and/or obstructions to visibility.
 TC=TEMPERATURE CELSIUS

 * =Non NWS site. Station does not report precipitation (e.g. rain,
    snow, etc.), thunder, or fog.

DCZ001-MDZ009-015-VAZ040>042-051-053>054-270500-
WASHINGTON METRO

CITY           SKY/WX    TMP DP  RH WIND       PRES   REMARKS
WASHINGTON NAT CLOUDY    82  66  58 S13       29.98R
DULLES         CLOUDY    78  66  66 S8        29.97S
ANDREWS AFB    CLOUDY    75  65  70 S9        29.97S
FT BELVOIR     CLOUDY    78  66  66 SE2       29.97S
QUANTICO       CLOUDY    80  67  64 S17G26    29.98S
COLLEGE PARK*  CLOUDY    79  63  57 S6        29.97S
LEESBURG*      LGT RAIN  79  73  83 S14       29.99R
MANASSAS*      CLOUDY    77  68  73 S5        29.97S
GAITHERSBURG*  CLOUDY    79  64  61 S10       30.02R

$$

MDZ006>007-011-014-270500-
BALTIMORE METRO

CITY           SKY/WX    TMP DP  RH WIND       PRES   REMARKS
BWI AIRPORT    CLOUDY    77  64  64 S6        29.97S
MD SCIENCE CTR   N/A     80  64  58 MISG      29.98S
MARTIN STATE   CLOUDY    79  70  73 SE10      29.99S
ANNAPOLIS      CLOUDY    79  66  64 S12G18    29.96S
FORT MEADE*    CLOUDY    72  64  78 CALM      30.00S

$$

MDZ012-015-019>023-270500-
MARYLAND EASTERN SHORE

CITY           SKY/WX    TMP DP  RH WIND       PRES   REMARKS
OCEAN CITY     MOCLDY    78  70  76 S5        30.01S
SALISBURY      PTCLDY    72  67  84 S5        30.00F
BAY BRIDGE AP*   N/A     79  64  61 S9        29.98S
CAMBRIDGE*     MOCLDY    73  66  78 CALM      29.99S
EASTON*        MOCLDY    76  67  73 S6        30.03R

$$

MDZ017>025-270500-
SOUTHERN MARYLAND

CITY           SKY/WX    TMP DP  RH WIND       PRES   REMARKS
PATUXENT RIVER CLOUDY    76  68  76 S6        29.98F
ST INIGOES     CLOUDY    79  71  76 S10       29.98S
LEONARDTOWN*   CLOUDY    75  66  73 SE3       30.00F

$$

MDZ003>005-270500-
NORTH CENTRAL MARYLAND

CITY           SKY/WX    TMP DP  RH WIND       PRES   REMARKS
FREDERICK*     CLOUDY    77  70  78 S5        29.99R THUNDER
HAGERSTOWN APT TSTM      77  71  82 W7        29.98R
WESTMINSTER*   CLOUDY    77  70  78 S5        29.98F

$$

MDZ501>502-270500-
WESTERN MARYLAND

CITY           SKY/WX    TMP DP  RH WIND       PRES   REMARKS
OAKLAND*       CLOUDY    68 N/A N/A SW3       30.09F
CUMBERLAND*    CLOUDY    79  70  73 CALM      30.01S

$$

VAZ025>031-270500-
SHENANDOAH VALLEY

CITY           SKY/WX    TMP DP  RH WIND       PRES   REMARKS
WINCHESTER*    CLOUDY    77  68  73 S6        29.97F
FRONT ROYAL*   MOCLDY    73  68  83 SW5       29.98R
LURAY*         MOCLDY    73  70  88 SW8       30.00S
NEW MARKET*    CLOUDY    69  69  99 CALM      29.99S
STAUNTON*      CLOUDY    76  70  82 E6        30.03F
WAYNESBORO*    FAIR      75  68  79 CALM      30.02S

$$

WVZ021-048>050-054>055-270500-
EASTERN WEST VIRGINIA PANHANDLE

CITY           SKY/WX    TMP DP  RH WIND       PRES   REMARKS
MARTINSBURG    CLOUDY    73  68  84 CALM      29.96S
PETERSBURG*    CLOUDY   N/A N/A N/A CALM      30.00S

$$

VAZ036>039-050-270500-
CENTRAL FOOTHILLS

CITY           SKY/WX    TMP DP  RH WIND       PRES   REMARKS
CHARLOTTESVILL HVY RAIN  74  70  87 NE12G22   30.01R FOG
CULPEPER*      CLOUDY    75  69  81 CALM      29.99S
ORANGE*        LGT RAIN  73  70  88 CALM      30.01R
GORDONSVILLE*  CLOUDY    73  70  88 CALM      29.99S
WARRENTON*     MOCLDY    78  71  78 CALM      29.98R

$$

VAZ055>057-270500-
NORTH AND CENTRAL PIEDMONT

CITY           SKY/WX    TMP DP  RH WIND       PRES   REMARKS
FREDERICKSBRG* CLOUDY    79  68  69 S6        29.96F
STAFFORD*      CLOUDY    76  67  73 CALM      30.02S

$$

NCZ024-NYZ072-PAZ021-071-VAZ022-071-270500-
OTHER REGIONAL OBSERVATIONS

CITY           SKY/WX    TMP DP  RH WIND       PRES   REMARKS
NEW YORK CITY  CLOUDY    79  58  48 MISG      30.01R
PHILADELPHIA   MOCLDY    78  67  68 S9        29.99R
PITTSBURGH     MOCLDY    73  67  81 CALM      29.98F
ROANOKE        PTCLDY    76  70  82 CALM      30.03S
RICHMOND       MOCLDY    75  66  73 S6        29.99F
RALEIGH        MOCLDY    76  65  68 S6        30.01S

$$

ANZ530>537-270500-
MARINE OBSERVATIONS

STATION/POSITION TIME  TEMP    WIND        PRES
                       AIR SEA DIR/SP/G
                 (UTC) (F)     (DEG/KT/KT) (MB)
THOMAS PT LIGHT  NOT AVBL
BALT KEY BRIDGE  0300   81     180/ 12/ 16 1014.4S
COVE POINT       0300   79     200/ 13/ 16 1016.2R
LEWISETTA        0300   78 83  180/  7/  8 1015.1F
SOLOMONS ISLAND  0300      83                N/A

$$




USA.gov is the U.S. government's official web portal to all federal, state and local government web resources and services.